[[{"header":{"parameterUnit":"m.s-1","parameterCategory":1,"la1":30.2991,"la2":30.254,"lo1":-89.0895,"lo2":-89.0444,"dy":0.0017,"dx":0.0017,"nx":28,"ny":28,"refTime":"2025-06-14T03:00:00:Z","depth":0,"parameterNumber":2,"parameterNumberName":"U-component_of_WINDS"},"data":[0,0,0,0,0,0,0,0,0,0,0,0,0,0,0,0,0,0,0,0,0,0,0,0,0,0,0,0,0,0,0,0,0,0,0,0,0,0,0,0,0,0,0,0,0,0,0,0,0,0,0,0,0,0,0,0,0,0,0.2512,0.2513,0,0.2651,0.2653,0.2655,0.2701,0.27,0.2699,0.2699,0.2847,0.2851,0.2856,0,0,0,0,0,0,0,0,0,0,0,0,0,0.2288,0.2292,0.2512,0.2513,0.2515,0.2651,0.2653,0.2655,0.2701,0.27,0.2699,0.2698,0.2845,0.2851,0.2856,0,0,0,0,0,0,0,0,0,0,0,0,0,0.2403,0.2294,0.2511,0.2554,0.2559,0.2651,0.2653,0.2656,0.2701,0.27,0.2699,0.2698,0.2844,0.285,0.2857,0.2917,0,0,0.2878,0.2881,0,0,0,0,0,0,0,0,0.2396,0.2411,0.2546,0.2551,0.2557,0.2658,0.2629,0.2744,0.2701,0.2647,0.2699,0.2698,0.2785,0.2796,0.2825,0.2924,0.2931,0.2878,0.2882,0.2885,0.2887,0,0,0,0,0,0,0,0.2388,0.2405,0.2567,0.2548,0.2555,0.2568,0.2583,0.2651,0.272,0.2652,0.2656,0.2671,0.2788,0.2818,0.2829,0.2933,0.2878,0.2884,0.2888,0.2891,0.3088,0.309,0,0,0,0,0,0,0.2372,0.2398,0.2563,0.2571,0.2473,0.2572,0.259,0.2626,0.2719,0.2732,0.2672,0.2673,0.2807,0.2821,0.2834,0.2911,0.2885,0.2891,0.2895,0.3087,0.3089,0.309,0,0,0,0,0,0,0.2367,0.2387,0.2557,0.2486,0.2508,0.2577,0.2618,0.263,0.266,0.2734,0.2747,0.269,0.2807,0.2825,0.2896,0.2917,0.2895,0.2901,0.3086,0.3088,0.3089,0.3065,0,0,0,0,0,0,0.2361,0.2385,0.2407,0.2486,0.2512,0.2615,0.262,0.2633,0.2671,0.2674,0.2755,0.2767,0.2808,0.2885,0.2902,0.2926,0.2906,0.3084,0.3087,0.3089,0.3064,0.3065,0.3067,0,0,0,0,0,0.2353,0.2396,0.2408,0.2428,0.2542,0.2616,0.2632,0.2676,0.2672,0.2697,0.2744,0.2765,0.2911,0.2892,0.2912,0.2937,0.3083,0.3086,0.3089,0.3063,0.3065,0.3067,0,0,0,0,0,0,0.2321,0.2407,0.2422,0.2492,0.2546,0.2624,0.2656,0.2676,0.2734,0.2734,0.2788,0.2806,0.2873,0.2913,0.289,0.3001,0.2998,0.3005,0.2972,0.2975,0.2976,0.2966,0.2912,0,0,0,0,0,0.2321,0.2373,0.2447,0.2501,0.2527,0.2586,0.2621,0.265,0.2709,0.2733,0.2786,0.2844,0.2903,0.2941,0.3,0.3069,0.3088,0.3097,0.3098,0.3099,0.3104,0.3144,0.3149,0.3099,0.3099,0.3099,0,0,0.2324,0.2378,0.2407,0.2496,0.2542,0.2595,0.2606,0.2662,0.2703,0.2742,0.2812,0.2853,0.2921,0.2992,0.3025,0.3027,0.3122,0.3102,0.3102,0.3107,0.3147,0.3152,0.3156,0.31,0.31,0.31,0,0,0.2356,0.2402,0.2452,0.2497,0.2565,0.2603,0.2615,0.269,0.2718,0.2788,0.2818,0.2868,0.2969,0.3016,0.3053,0.3102,0.3123,0.3119,0.3127,0.3165,0.3169,0.3173,0.319,0.3196,0.3124,0.3124,0.3124,0,0.2351,0.2432,0.2476,0.253,0.2568,0.2604,0.2655,0.2697,0.2782,0.2808,0.2807,0.2933,0.2982,0.3064,0.3076,0.3104,0.3121,0.3111,0.3164,0.3169,0.3173,0.319,0.3197,0.3123,0.3124,0.3124,0.3124,0,0.2423,0.2478,0.2511,0.2589,0.2631,0.2684,0.2736,0.2774,0.2799,0.2838,0.2909,0.2968,0.3039,0.3061,0.3087,0.3146,0.3145,0.3153,0.3153,0.3176,0.3193,0.32,0.3122,0.3123,0.3123,0.3123,0,0,0.2441,0.254,0.2552,0.2587,0.2664,0.2709,0.2763,0.283,0.2862,0.2918,0.2966,0.3049,0.3057,0.31,0.3131,0.3164,0.3199,0.3169,0.3172,0.3173,0.3269,0.3262,0.3269,0.3213,0.3214,0.3215,0.3263,0,0.2483,0.2581,0.2621,0.27,0.2752,0.2785,0.2833,0.2885,0.2923,0.2974,0.3016,0.3074,0.308,0.3106,0.314,0.3187,0.3219,0.3184,0.3259,0.3261,0.3242,0.3278,0.3272,0.3315,0.327,0.3271,0.3272,0,0.2547,0.2601,0.2685,0.2754,0.2778,0.2819,0.2884,0.2931,0.2992,0.3017,0.3063,0.3092,0.3151,0.3145,0.3229,0.3204,0.3237,0.3264,0.3267,0.3277,0.3269,0.329,0.3329,0.3336,0.3283,0.3283,0.3282,0,0.2552,0.2646,0.2708,0.2738,0.282,0.2849,0.2885,0.2944,0.2982,0.3039,0.3064,0.3127,0.3162,0.3211,0.3257,0.3248,0.3336,0.3334,0.336,0.3359,0.3378,0.3376,0.3424,0.3397,0.3397,0.3397,0.3397,0,0.2596,0.2646,0.2711,0.275,0.2807,0.2853,0.2908,0.2947,0.2999,0.3046,0.308,0.3124,0.3181,0.3232,0.3269,0.3332,0.3348,0.3371,0.338,0.3368,0.3365,0.3392,0.339,0.3399,0.3399,0.3398,0.3398,0,0.2612,0.2658,0.2727,0.2799,0.2818,0.2857,0.2919,0.2958,0.2996,0.3055,0.3072,0.3133,0.3195,0.3245,0.3327,0.3351,0.3418,0.3428,0.3397,0.3402,0.3425,0.3423,0.3493,0.3504,0.3468,0.3469,0.3469,0,0.2637,0.2676,0.2751,0.2784,0.2819,0.2872,0.291,0.2956,0.2994,0.3065,0.3096,0.316,0.3214,0.3312,0.3364,0.3427,0.344,0.3459,0.3449,0.3436,0.3441,0.3438,0.3443,0.3461,0.3461,0.3461,0.3461,0,0.2678,0.2698,0.2751,0.2811,0.2854,0.2904,0.2955,0.2981,0.3036,0.3078,0.3141,0.3182,0.3264,0.3328,0.3396,0.3435,0.3458,0.3464,0.3473,0.3462,0.3443,0.3454,0.3401,0.3462,0.3462,0.3462,0.3462,0.3462,0.2701,0.2736,0.2794,0.2851,0.2893,0.294,0.298,0.3022,0.3074,0.3144,0.3168,0.3233,0.3292,0.3385,0.3424,0.3476,0.3479,0.3492,0.3496,0.3499,0.3497,0.3433,0.3489,0.3489,0.3489,0.3489,0.3489,0,0.2744,0.2782,0.2833,0.2902,0.2947,0.2962,0.3019,0.3056,0.3112,0.3164,0.3216,0.3288,0.3349,0.3405,0.347,0.3501,0.3513,0.3516,0.3515,0.3524,0.3492,0.3477,0.3505,0.3505,0.3505,0.3505,0.3505,0.3505,0.2771,0.2833,0.2859,0.2942,0.2981,0.3043,0.3074,0.3117,0.3159,0.3237,0.3287,0.3323,0.3377,0.3445,0.3503,0.3518,0.354,0.3541,0.3559,0.3528,0.3526,0.3524,0.3511,0.3545,0.3545,0.3587,0.3587,0.3588]},{"header":{"parameterUnit":"m.s-1","parameterCategory":1,"la1":30.2991,"la2":30.254,"lo1":-89.0895,"lo2":-89.0444,"dy":0.0017,"dx":0.0017,"nx":28,"ny":28,"refTime":"2025-06-14T03:00:00:Z","depth":0,"parameterNumber":3,"parameterNumberName":"V-component_of_WINDS"},"data":[0,0,0,0,0,0,0,0,0,0,0,0,0,0,0,0,0,0,0,0,0,0,0,0,0,0,0,0,0,0,0,0,0,0,0,0,0,0,0,0,0,0,0,0,0,0,0,0,0,0,0,0,0,0,0,0,0,0,3.381,3.381,0,3.3828,3.3828,3.3828,3.38,3.3799,3.3798,3.3798,3.3814,3.3815,3.3817,0,0,0,0,0,0,0,0,0,0,0,0,0,3.3748,3.375,3.381,3.381,3.3811,3.3828,3.3828,3.3828,3.3801,3.3799,3.3798,3.3797,3.3814,3.3815,3.3817,0,0,0,0,0,0,0,0,0,0,0,0,0,3.3772,3.375,3.381,3.3799,3.3798,3.3828,3.3828,3.3828,3.3801,3.3799,3.3798,3.3797,3.3813,3.3815,3.3817,3.3858,0,0,3.3823,3.3824,0,0,0,0,0,0,0,0,3.377,3.3774,3.38,3.38,3.3799,3.381,3.3812,3.3838,3.3801,3.38,3.3798,3.3796,3.3814,3.3816,3.3822,3.3859,3.386,3.3823,3.3825,3.3825,3.3826,0,0,0,0,0,0,0,3.3769,3.3773,3.3817,3.3801,3.38,3.3792,3.3793,3.3817,3.3815,3.38,3.3798,3.38,3.3813,3.382,3.3822,3.386,3.3823,3.3825,3.3826,3.3827,3.3928,3.393,0,0,0,0,0,0,3.3769,3.3772,3.3816,3.3818,3.3781,3.3794,3.3796,3.3808,3.3814,3.3814,3.3802,3.3799,3.3818,3.382,3.3823,3.3869,3.3825,3.3827,3.3829,3.3927,3.3929,3.393,0,0,0,0,0,0,3.3768,3.3773,3.3816,3.3794,3.3799,3.3797,3.3811,3.3809,3.3816,3.3816,3.3815,3.381,3.3817,3.382,3.3849,3.387,3.3828,3.383,3.3925,3.3927,3.393,3.3964,0,0,0,0,0,0,3.3766,3.3773,3.379,3.3795,3.38,3.3843,3.3812,3.3811,3.382,3.3817,3.3823,3.3823,3.3816,3.3846,3.3851,3.3872,3.3832,3.3923,3.3926,3.3929,3.3961,3.3967,3.3973,0,0,0,0,0,3.3764,3.3799,3.3791,3.3796,3.3821,3.3844,3.3847,3.3839,3.3822,3.3838,3.3837,3.3822,3.3867,3.385,3.3855,3.3876,3.3922,3.3925,3.3929,3.3959,3.3966,3.3973,0,0,0,0,0,0,3.3796,3.38,3.379,3.3828,3.3836,3.3839,3.3859,3.3848,3.386,3.3857,3.3846,3.3847,3.3878,3.388,3.3861,3.3915,3.3891,3.3896,3.3912,3.392,3.3925,3.3923,3.3833,0,0,0,0,0,3.3808,3.3827,3.3829,3.3862,3.3866,3.3862,3.3872,3.3865,3.3872,3.3875,3.3877,3.3884,3.3899,3.391,3.3924,3.3962,3.3961,3.3979,3.3984,3.3989,3.3993,3.401,3.4017,3.3941,3.3941,3.3941,0,0,3.3832,3.3836,3.3849,3.3868,3.3874,3.3892,3.3865,3.3887,3.39,3.3879,3.3906,3.3907,3.3914,3.3947,3.3961,3.3949,3.4014,3.3993,3.3997,3.3998,3.4014,3.4022,3.4028,3.3944,3.3943,3.3943,0,0,3.3885,3.3891,3.3918,3.3924,3.3932,3.3928,3.3935,3.3939,3.3939,3.3966,3.395,3.3965,3.3992,3.3997,3.4003,3.4056,3.4042,3.4061,3.409,3.4107,3.4113,3.4119,3.4135,3.4142,3.4065,3.4065,3.4065,0,3.3914,3.3942,3.3933,3.3955,3.3963,3.3944,3.397,3.3976,3.3989,3.3994,3.3981,3.4013,3.4017,3.4049,3.4061,3.4068,3.4073,3.406,3.4113,3.4119,3.4123,3.4139,3.4145,3.4067,3.4067,3.4066,3.4066,0,3.3976,3.3995,3.4016,3.4028,3.4038,3.4062,3.4056,3.4067,3.4059,3.4056,3.4082,3.4086,3.41,3.4107,3.41,3.4138,3.413,3.4115,3.4091,3.4133,3.4147,3.4153,3.407,3.4069,3.4068,3.4068,0,0,3.4051,3.4055,3.4063,3.4067,3.4073,3.4088,3.411,3.4123,3.4132,3.4141,3.4158,3.4181,3.4166,3.4173,3.4166,3.4181,3.422,3.4164,3.4164,3.4173,3.426,3.4269,3.4277,3.4211,3.4212,3.4213,3.4258,0,3.4101,3.414,3.4132,3.4169,3.4185,3.4167,3.4186,3.4191,3.4189,3.4202,3.42,3.4215,3.4196,3.42,3.4214,3.4212,3.4237,3.4209,3.4225,3.4226,3.4222,3.4285,3.4295,3.4338,3.4264,3.4265,3.4266,0,3.4167,3.4177,3.4215,3.4217,3.4223,3.4241,3.4251,3.4264,3.4269,3.4266,3.4273,3.4262,3.4282,3.4259,3.4285,3.4266,3.4273,3.4272,3.4274,3.4274,3.4247,3.4285,3.4352,3.4357,3.4275,3.4274,3.4274,0,3.4214,3.4238,3.4263,3.4267,3.427,3.4282,3.4284,3.4288,3.4295,3.4304,3.4308,3.432,3.4325,3.4333,3.4325,3.4309,3.4352,3.4329,3.4349,3.4349,3.4358,3.4358,3.4425,3.4365,3.4365,3.4365,3.4365,0,3.4271,3.4295,3.4284,3.43,3.4325,3.4315,3.434,3.434,3.4342,3.4356,3.4342,3.4355,3.4344,3.4356,3.435,3.4371,3.4375,3.4372,3.437,3.4372,3.4372,3.4375,3.4371,3.4367,3.4366,3.4366,3.4366,0,3.4329,3.4323,3.4349,3.4349,3.4349,3.4368,3.4367,3.4381,3.4377,3.4395,3.4399,3.4393,3.4406,3.4399,3.4413,3.4408,3.4436,3.4431,3.4434,3.4432,3.4452,3.445,3.4523,3.4532,3.4468,3.4468,3.4469,0,3.4365,3.4382,3.4384,3.4392,3.4394,3.4408,3.4415,3.4405,3.4413,3.4419,3.4431,3.4443,3.4452,3.4474,3.447,3.448,3.4474,3.4499,3.4475,3.4477,3.4472,3.447,3.4471,3.4503,3.4504,3.4505,3.4505,0,3.4428,3.4424,3.4435,3.4444,3.4453,3.446,3.4466,3.4474,3.4463,3.4473,3.4486,3.4493,3.4506,3.4517,3.4526,3.4526,3.4513,3.4513,3.4518,3.452,3.452,3.4518,3.4445,3.4511,3.451,3.451,3.4509,3.4509,3.4474,3.4488,3.4491,3.4503,3.4506,3.4511,3.4523,3.452,3.4531,3.4541,3.4534,3.4549,3.4552,3.4561,3.4563,3.4574,3.4564,3.4572,3.4573,3.4575,3.4577,3.452,3.4576,3.4576,3.4576,3.4576,3.4575,0,3.4535,3.4535,3.4547,3.4555,3.4564,3.4551,3.4556,3.4564,3.4578,3.4581,3.4589,3.4603,3.4614,3.4611,3.462,3.4629,3.4623,3.4632,3.463,3.463,3.4586,3.458,3.4636,3.4636,3.4636,3.4636,3.4636,3.4636,3.4568,3.459,3.4585,3.4608,3.4608,3.4622,3.4625,3.463,3.4632,3.4648,3.4656,3.4654,3.4655,3.4663,3.4672,3.4671,3.4674,3.4684,3.468,3.464,3.4633,3.4628,3.4622,3.4685,3.4685,3.4723,3.4723,3.4723]}]]